Location: Unspecified
(0.0000°N, 0.0000°E)
Time: 09:43:00
(UTC+00:00)

Hubble Space Telescope - Pass Details

Date: 22 January 2018
Orbit: 537 x 541 km, 28.5° (Epoch: 18 April)

Event Time Altitude Azimuth Distance (km) Brightness Sun altitude
Exits shadow 04:04:39 30° 128° (SE) 985 2.6 -29.7°
Drops below altitude 10° 04:06:48 10° 124° (SE) 1,790 4.3 -29.2°
Sets 04:09:04 0° 123° (ESE) 2,682 5.5 -28.6°
